[[{"header":{"parameterUnit":"m.s-1","parameterCategory":1,"la1":30.2992,"la2":30.254,"lo1":-89.0895,"lo2":-89.0443,"dy":0.0025,"dx":0.0025,"nx":19,"ny":19,"refTime":"2026-04-15T21:00:00:Z","depth":0,"parameterNumber":2,"parameterNumberName":"U-component_of_WINDS"},"data":[0,0,0,2.0681,2.0681,2.0654,2.0654,2.0646,2.0646,0,0,0,0,0,0,0,0,0,0,0,2.0706,2.0706,2.0681,2.0681,2.0654,2.0654,2.0646,2.0646,0,0,0,0,0,0,0,0,0,0,0,2.0706,2.0706,2.0707,2.0681,2.0654,2.0654,2.0646,2.0656,0,0,0,0,0,0,0,0,0,0,2.0678,2.0718,2.0706,2.0707,2.0681,2.0654,2.0654,2.0657,2.0656,2.067,0,2.0688,0,2.0667,2.0647,2.0648,0,0,0,2.0668,2.0719,2.0696,2.0707,2.0681,2.0654,2.0662,2.0656,2.0655,2.0669,2.0687,2.0686,2.0667,2.0648,2.0648,2.0771,2.0772,0,0,2.0669,2.071,2.0697,2.0696,2.0703,2.0663,2.0662,2.0655,2.0677,2.0687,2.0685,2.0667,2.0648,2.0648,2.077,2.0772,0,0,0,2.0682,2.0712,2.0688,2.0697,2.0691,2.0663,2.0661,2.0677,2.0666,2.0685,2.0667,2.0648,2.0648,2.0769,2.0771,2.0866,0,0,0,2.0682,2.0719,2.069,2.0715,2.0691,2.0684,2.0684,2.0667,2.0665,2.0667,2.0648,2.0648,2.0767,2.077,2.0861,2.0904,0,0,0,2.0702,2.0721,2.0723,2.0717,2.0707,2.0683,2.0671,2.0665,2.0654,2.0648,2.0648,2.0767,2.0769,2.0856,2.0896,2.0946,0,0,0,2.0734,2.081,2.0726,2.0804,2.0708,2.0744,2.0671,2.0696,2.0702,2.0648,2.0768,2.077,2.0854,2.0891,2.0941,2.0993,2.102,0,0,2.0853,2.0826,2.0869,2.0792,2.0853,2.0744,2.0819,2.0786,2.0749,2.0766,2.0768,2.0863,2.0895,2.0945,2.1159,2.1181,0,0,0,2.092,2.0951,2.0958,2.0965,2.0942,2.0925,2.0876,2.0864,2.0876,2.0766,2.0895,2.0913,2.094,2.0963,2.0981,2.1,2.0784,2.0783,2.0783,2.1145,2.1092,2.1158,2.1102,2.1111,2.1059,2.106,2.1034,2.098,2.1011,2.1014,2.1151,2.118,2.1193,2.1214,2.1041,2.1041,2.1041,2.1042,2.1311,2.1344,2.127,2.1307,2.1251,2.1281,2.1234,2.1194,2.1213,2.1145,2.1166,2.1093,2.1218,2.1233,2.1048,2.1047,2.1046,2.1046,2.1045,2.1449,2.1456,2.144,2.1444,2.1453,2.1394,2.1415,2.1364,2.1316,2.1338,2.1333,2.1332,2.1321,2.134,2.134,2.1341,2.1341,2.1342,2.1342,2.1598,2.1576,2.16,2.1582,2.1579,2.1568,2.1518,2.1513,2.1494,2.1455,2.1455,2.1395,2.1242,2.1202,2.1349,2.1348,2.1347,2.1346,2.1346,2.1779,2.173,2.1767,2.1764,2.1737,2.1747,2.1683,2.1678,2.1667,2.1678,2.1615,2.151,2.1479,2.1464,2.143,2.1628,2.1628,2.1628,2.1628,2.1893,2.1873,2.1898,2.1896,2.1889,2.1834,2.1875,2.1836,2.1788,2.1778,2.1743,2.1695,2.1683,2.1658,2.1639,2.1607,2.1845,2.1845,2.1845,2.2,2.1976,2.2021,2.1974,2.1949,2.1929,2.1965,2.1965,2.1901,2.1853,2.1767,2.1758,2.1681,2.166,2.1607,2.1578,2.1518,0,0]},{"header":{"parameterUnit":"m.s-1","parameterCategory":1,"la1":30.2992,"la2":30.254,"lo1":-89.0895,"lo2":-89.0443,"dy":0.0025,"dx":0.0025,"nx":19,"ny":19,"refTime":"2026-04-15T21:00:00:Z","depth":0,"parameterNumber":3,"parameterNumberName":"V-component_of_WINDS"},"data":[0,0,0,1.8723,1.8725,1.8779,1.8779,1.8851,1.8852,0,0,0,0,0,0,0,0,0,0,0,1.8711,1.8712,1.8723,1.8725,1.8779,1.8779,1.8851,1.8852,0,0,0,0,0,0,0,0,0,0,0,1.8711,1.8712,1.8713,1.8725,1.8779,1.8779,1.8851,1.8809,0,0,0,0,0,0,0,0,0,0,1.8755,1.8749,1.8712,1.8713,1.8725,1.8779,1.8779,1.8806,1.8811,1.8829,0,1.8847,0,1.8851,1.8857,1.8858,0,0,0,1.8721,1.8745,1.8756,1.8713,1.8726,1.8779,1.8754,1.8809,1.8814,1.8835,1.8848,1.8851,1.8852,1.8858,1.8858,1.8974,1.8975,0,0,1.8718,1.8723,1.8752,1.876,1.8754,1.8752,1.8755,1.8812,1.8826,1.8848,1.8852,1.8853,1.8858,1.8859,1.8973,1.8974,0,0,0,1.8712,1.8721,1.8731,1.8757,1.8766,1.8754,1.8758,1.8824,1.8826,1.8853,1.8854,1.8859,1.886,1.8973,1.8974,1.9013,0,0,0,1.871,1.8717,1.8729,1.8733,1.8766,1.8796,1.8768,1.8823,1.8829,1.8854,1.8859,1.886,1.8972,1.8973,1.901,1.903,0,0,0,1.8706,1.8717,1.8726,1.8733,1.8757,1.8795,1.8801,1.8824,1.883,1.8858,1.8861,1.8971,1.8973,1.9008,1.9026,1.9061,0,0,0,1.8703,1.876,1.8727,1.8791,1.8756,1.882,1.8801,1.8848,1.8876,1.8859,1.8972,1.8973,1.9007,1.9024,1.9059,1.9091,1.9106,0,0,1.8778,1.877,1.8807,1.8778,1.8849,1.8811,1.8887,1.8908,1.8906,1.8951,1.8954,1.9011,1.9026,1.9061,1.9186,1.9197,0,0,0,1.8832,1.8858,1.8876,1.8904,1.8923,1.8939,1.8949,1.8956,1.8994,1.8931,1.9033,1.9042,1.9062,1.9078,1.9087,1.9104,1.8981,1.8981,1.8981,1.8943,1.8938,1.8998,1.8999,1.9026,1.9035,1.9056,1.9067,1.9053,1.9077,1.909,1.9167,1.9185,1.9192,1.921,1.9108,1.9108,1.9108,1.9108,1.9051,1.9087,1.9067,1.9119,1.9112,1.9154,1.9164,1.9152,1.9189,1.9157,1.9174,1.9139,1.9205,1.922,1.9111,1.9111,1.911,1.911,1.911,1.9122,1.9139,1.9148,1.9187,1.9217,1.9215,1.9251,1.9244,1.9236,1.9254,1.9266,1.9265,1.9262,1.926,1.926,1.9261,1.9261,1.9261,1.9261,1.9193,1.9202,1.9234,1.9258,1.9274,1.9294,1.9302,1.9317,1.9331,1.9323,1.9323,1.9305,1.9213,1.919,1.9265,1.9265,1.9264,1.9264,1.9263,1.9303,1.9276,1.9327,1.9343,1.9369,1.9398,1.9388,1.9419,1.943,1.9448,1.9427,1.936,1.9351,1.9343,1.9323,1.9429,1.9429,1.9429,1.9429,1.9362,1.9357,1.9406,1.9432,1.9457,1.9452,1.9507,1.9513,1.9515,1.9521,1.9504,1.9478,1.947,1.9465,1.9455,1.9436,1.9568,1.9568,1.9568,1.9429,1.9425,1.9474,1.9477,1.9496,1.9512,1.9563,1.9591,1.9588,1.9574,1.9525,1.9519,1.9476,1.9463,1.9447,1.9431,1.9397,0,0]}]]